Location: WWIN Observatory
(34.8953°N, 91.9583°W)
Time: 07:29:30
(UTC-05:00)

ISS - Visible Passes

Search period start: 20 October 2019 00:00
Search period end: 30 October 2019 00:00
Orbit: 411 x 421 km, 51.6° (Epoch: 20 October)

Date Brightness Start Highest point End Pass type
(mag) Time Alt. Az. Time Alt. Az. Time Alt. Az.
21 Oct -1.0 06:45:55 10° S 06:48:32 21° SE 06:51:10 10° ENE visible
22 Oct -0.5 05:58:59 10° SSE 06:00:08 11° SE 06:01:17 10° ESE visible
23 Oct -3.6 06:44:33 10° SW 06:47:53 75° SE 06:51:14 10° NE visible
24 Oct -2.3 05:56:50 14° SSW 05:59:21 36° SE 06:02:29 10° ENE visible
25 Oct -1.1 05:11:17 19° ESE 05:11:17 19° ESE 05:13:21 10° E visible
25 Oct -2.9 06:44:19 10° WSW 06:47:25 33° NW 06:50:31 10° NNE visible
26 Oct -3.8 05:58:24 57° WNW 05:58:44 62° NW 06:02:04 10° NE visible
27 Oct -1.1 05:12:22 19° NE 05:12:22 19° NE 05:13:27 10° NE visible
27 Oct -1.7 06:45:17 11° WNW 06:47:08 15° NNW 06:49:10 10° N visible
28 Oct -2.0 05:59:04 21° NNW 05:59:04 21° NNW 06:01:01 10° NNE visible
